{"data":{"norad_id":59215,"epoch":"2026-09-20T21:30:31.628160Z","epoch_age_seconds":124619,"freshness":"FRESH","line1":"1 59215U 24046Q   26263.89619940  .00001238  00000+0  47776-4 0  9991","line2":"2 59215  53.1613 323.8697 0001628  72.1820 287.9360 15.34393184142999","mean_motion":15.34393184,"eccentricity":0.0001628,"inclination_deg":53.1613,"raan_deg":323.8697,"arg_perigee_deg":72.182,"mean_anomaly_deg":287.936,"bstar":4.7776e-5,"rev_number":14299,"period_min":93.848174966867,"perigee_km":461.60980678129,"apogee_km":463.83719095972,"semimajor_km":6840.8604988705,"source":"CELESTRAK","updated_at":"2026-09-21T09:00:34.071330Z"}}